Lid_Strength_Index
13 14 14 14 14 15 14 14 14 13 13 13 12 12 12 11 11 11 11 11 10 10
15 15 15 15 15 15 15 14 14 14 14 13 13 13 12 12 12 12 11 11 11 10
15 15 16 16 16 16 15 14 14 14 14 14 13 13 13 12 12 12 12 11 11 11
16 16 16 16 16 16 15 15 15 15 14 14 14 13 12 12 12 13 12 12 12 12
16 16 16 16 16 16 16 15 15 15 14 14 13 13 12 12 12 13 13 12 13 13
17 17 17 17 16 16 16 15 15 15 15 14 14 13 12 12 12 13 13 13 13 13
16 17 17 16 16 16 15 15 15 15 15 14 13 12 12 12 13 13 13 13 13 13
17 17 16 16 16 16 16 16 15 15 15 14 13 12 12 13 13 14 14 14 14 14
17 16 17 17 16 16 16 16 15 15 15 15 15 12 12 12 14 14 15 15 14 14
17 17 17 17 17 17 17 16 16 16 16 16 16 13 13 13 14 15 15 15 15 15
17 17 17 17 18 17 17 17 17 17 17 17 16 14 13 13 15 15 15 15 15 16
18 18 18 18 18 18 18 17 18 17 17 18 17 15 14 14 15 16 16 15 15 16
18 18 18 19 19 18 18 18 18 18 18 18 18 16 15 14 16 16 16 16 16 16
19 19 19 20 20 20 20 20 20 20 19 19 18 18 15 15 16 16 17 17 17 17